This is the latest recevied weather packets stored in our database for station/object 4S6DRJ-13. If no packets are shown the sender has not sent any weather packets the latest 10 day(s).
| Time | Temp. | Humidity | Pressure | Rain* | Wind** | Luminosity | Snow |
|---|---|---|---|---|---|---|---|
| 1787697981 | 26.67° C | 88% | 1010.1 hPa | 0 mm | 1.34 m/s, 237° | 0 W/m² | - |
| 1787697920 | 26.67° C | 88% | 1010 hPa | 0 mm | 1.79 m/s, 245° | 0 W/m² | - |
| 1787697859 | 26.67° C | 88% | 1010.1 hPa | 0 mm | 1.34 m/s, 249° | 0 W/m² | - |
| 1787697798 | 26.67° C | 88% | 1010 hPa | 0 mm | 0 m/s | 0 W/m² | - |
| 1787697737 | 26.67° C | 88% | 1010.1 hPa | 0 mm | 1.34 m/s, 200° | 0 W/m² | - |
| 1787697676 | 26.67° C | 88% | 1010 hPa | 0 mm | 0.89 m/s, 206° | 0 W/m² | - |
| 1787697615 | 26.67° C | 88% | 1010.1 hPa | 0 mm | 0.89 m/s, 193° | 0 W/m² | - |
| 1787697553 | 26.67° C | 88% | 1009.9 hPa | 0 mm | 0.89 m/s, 254° | 0 W/m² | - |
| 1787697493 | 26.67° C | 88% | 1010 hPa | 0 mm | 0.89 m/s, 207° | 0 W/m² | - |
| 1787697432 | 26.67° C | 88% | 1010 hPa | 0 mm | 0.89 m/s, 149° | 0 W/m² | - |
| 1787697370 | 26.67° C | 88% | 1009.7 hPa | 0 mm | 1.34 m/s, 206° | 0 W/m² | - |
| 1787697310 | 26.67° C | 88% | 1009.9 hPa | 0 mm | 1.34 m/s, 192° | 0 W/m² | - |
| 1787697249 | 26.67° C | 88% | 1010 hPa | 0 mm | 2.24 m/s, 229° | 0 W/m² | - |
| 1787697188 | 26.67° C | 88% | 1009.8 hPa | 0 mm | 1.79 m/s, 230° | 0 W/m² | - |
| 1787697127 | 26.67° C | 88% | 1009.9 hPa | 0 mm | 2.24 m/s, 237° | 0 W/m² | - |
| 1787697066 | 26.67° C | 88% | 1009.9 hPa | 0 mm | 0.89 m/s, 213° | 0 W/m² | - |
| 1787697005 | 26.67° C | 88% | 1009.9 hPa | 0 mm | 0.89 m/s, 159° | 0 W/m² | - |
| 1787696944 | 26.67° C | 88% | 1009.9 hPa | 0 mm | 2.24 m/s, 174° | 0 W/m² | - |
| 1787696883 | 26.67° C | 88% | 1010.1 hPa | 0 mm | 0.45 m/s, 188° | 0 W/m² | - |
| 1787696822 | 26.67° C | 88% | 1010.1 hPa | 0 mm | 0.45 m/s, 226° | 0 W/m² | - |
| 1787696761 | 26.67° C | 88% | 1009.8 hPa | 0 mm | 1.79 m/s, 237° | 0 W/m² | - |
| 1787696700 | 26.67° C | 88% | 1009.9 hPa | 0 mm | 0.89 m/s, 252° | 0 W/m² | - |
| 1787696639 | 26.67° C | 88% | 1009.9 hPa | 0 mm | 0.89 m/s, 236° | 0 W/m² | - |
| 1787696579 | 26.67° C | 88% | 1009.6 hPa | 0 mm | 1.79 m/s, 177° | 0 W/m² | - |
| 1787696517 | 26.67° C | 88% | 1010 hPa | 0 mm | 0.89 m/s, 242° | 0 W/m² | - |
* Rain latest hour (hover to see other rain measurements)
** Current wind speed in m/s (hover to see current wind gust speed)